星链-32246 (STARLINK-32246)

导读

STARLINK-32246是美国SpaceX公司于2024年8月12日发射的星链系列卫星,属于星链低轨互联网卫星星座的组成部分。星链星座通过在近地轨道部署大量卫星,旨在为全球提供高速低延迟宽带互联网服务,填补传统基础设施覆盖盲区,STARLINK-32246也将助力星座扩容,进一步完善全球网络覆盖能力。

Basic Information
目录编号:
60432
目录名称:
STARLINK-32246
国际标识:
2024-144H
轨道中心:
EARTH
卫星名称:
星链-32246 (STARLINK-32246)
卫星全名:
星链-32246 (STARLINK-32246)
卫星状态:
在轨 (已飞行753 天)
发射日期:
2024-08-12 UTC
国别 :
美国 (US)
星等 :
--
Orbit Information
数据来源 国际轨道数据
星历时间: 2026-09-02T06:12:20+0800
2天前
查看轨道信息
半长轴: 6840.845km
偏心率: 0.0001124
轨道倾角: 53.160°
近地点辐角 93.753°
升交点赤经 116.267°
平近点角 266.360°
近地点: 461.939km
远地点: 463.477km
周期: 93.848分钟
每日圈数: 15.343985
Detailed Information
卫星平台:
Starlink v2.0 mini
运营商:
太空探索技术公司
运营商所在国:
美国
制造商(研发单位):
太空探索技术公司
制造商所在国:
美国
使用方式:
暂无
Satellite Introduction
星链(Starlink)计划是由太空探索技术公司(SpaceX)提出的一个巨型低轨卫星互联网星座项目,计划在2019年至2024年间在太空搭建由约1.2万颗卫星组成的“星链”网络,其中1584颗将部署在地球上空550千米处的近地轨道,并从2020年开始工作。该卫星仍在工作。
2D Orbit Map
3D Orbit Map
Orbit Altitude Analysis Chart
Orbit Inclination Analysis Chart
Orbit Comprehensive Analysis Chart
View Comprehensive Chart
Conjunction Data List
Event ID Objects TCA Miss Dist (km) Collision Risk Probability Collision Risk Index (CRI) Action
CDM_260905-031806-043206-503921
2026-09-05T
03:18:24+0000
0.901 km
远距离
2.440816E-5 中风险 0.63
CDM_260905-065105-504806-043221
2026-09-05T
06:51:36+0000
1.942 km
极远距离
3.060365E-6 低风险 0.45
CDM_260904-234206-043206-978821
2026-09-04T
23:42:26+0000
2.340 km
极远距离
1.763404E-6 低风险 0.4